ITOS 1 (TIROS M)

Satellite information

Favourite Embed

Satellite Type and Status

PAYLOADIN ORBIT

Key statistics

Satellite ITOS 1 (TIROS M) at a glance.

Uptime

20373

Days in orbit

Revolutions

≈ 12.5

Per day

Orbit

SSO

Sun Synchronous Orbit

Inclination

101.4

Latest

Satellite identification and parameters

Extended collection of information and parameters for ITOS 1 (TIROS M).

Object identification

Identified? True

Debris? False

Object name: ITOS 1 (TIROS M)

International designator: 1970-008A

Object number (NORAD): 4320

Object ID (CCSDS): 4320

Country: UNITED STATES OF AMERICA (US)

Current information (Y/N): Y

RCS size: LARGE

Orbital parameters

Period: 115.005 minutes

Inclination: 101.4052 deg

SMA: 7833.793 km

Apoapsis: 1477.808 km

Periapsis: 1433.508 km

RAAN: 344.5879 deg

Eccentricy: 0.0028275

Argument of periapsis: 37.294 deg

Mean anomaly: 334.1109 deg

Mean motion: 12.52116277 rev/day

Mean motion (dot): -0.00000017 rev/day2

B* drag term: 0.00016691 1/REarth

Two-line elements (TLE)

Creation date: Nov. 2, 2025, 3:46 p.m.

Reference frame: TEME

Reference center: EARTH

Epoch: Nov. 2, 2025, 9:24 a.m. UTC

TLE line 0: 0 ITOS 1 (TIROS M)

TLE line 1: 1 4320U 70008A 25306.39193484 -.00000017 00000-0 16691-3 0 9996

TLE line 2: 2 4320 101.4052 344.5879 0028275 37.2940 334.1109 12.52116277745475

Live tracking on map

Real-time ground track for satellite ITOS 1 (TIROS M).

In-orbit conjunctions

A list of the most updated potential collisions computed for object ITOS 1 (TIROS M).

Target Orbit TCA Probability of collision Miss distance Type
CZ-4 DEB SSO 2025-08-06 07:36:37 0.000514751 430.0 (m) DEBRIS
DELTA 1 DEB SSO 2024-06-27 05:31:27 0.0001284726 274.0 (m) DEBRIS

Associated space launch

Sun-synchronous meteorological satellite

ITOS 1 (TIROS M) was lifted into orbit during the mission ‘Thor Delta N6 | ITOS 1’, on board a Thor Delta N6 space rocket.

The launch took place on Jan. 23, 1970, 11:31 a.m. from Space Launch Complex 2W.

For more information about the launch, click the button.

Launch to space Thor Delta N6 | ITOS 1
Thor Delta N6 | ITOS 1

Agency: N/A

Status: Launch Successful

Launch date: Jan. 23, 1970, 11:31 a.m. UTC

Rocket: Thor Delta N6

Launch pad: Space Launch Complex 2W

Location: Vandenberg SFB, CA, USA

...

Latest news about this satellite

There are no fresh news available about this satellite. Check back as we update our databases every day.


Newsletter sign-up

Weekly statistics, charts and insights to help you stay on top of the space industry.